Location: Baia Mare
(47.6567°N, 23.5850°E)
Time: 14:11:19
(UTC+03:00)

ISS - Pass Details

Date: 21 July 2019
Orbit: 409 x 418 km, 51.6° (Epoch: 21 July)

Event Time Altitude Azimuth Distance (km) Brightness Sun altitude
Rises 00:02:25 0° 276° (W) 2,352 0.4 -18.8°
Reaches altitude 10° 00:04:36 10° 284° (WNW) 1,488 -0.5 -19.0°
Maximum altitude 00:07:46 40° 356° (N) 622 -2.4 -19.2°
Drops below altitude 10° 00:10:57 10° 68° (ENE) 1,484 -1.0 -19.4°
Enters shadow 00:12:34 - 74° (ENE) 2,123 -0.2 -19.5°
